Regional Weather Roundup
Issued by NWS Wakefield, VA

Home | Current Version | Previous Version | Text Only | Print | Product List | Glossary On
Versions: 1 2 3 4 5 6 7 8 9 10 11 12 13 14 15 16 17 18 19 20 21 22 23 24 25 26 27 28 29 30 31 32 33 34 35 36 37 38 39 40 41 42 43 44 45 46 47 48 49 50
000
ASUS41 KAKQ 212010
RWRAKQ

REGIONAL WEATHER ROUNDUP
NATIONAL WEATHER SERVICE WAKEFIELD VA
300 PM EST SUN DEC 21 2014

Note: "fair" indicates few or no clouds below 12,000 feet with no
significant weather and/or obstructions to visibility. * = Denotes
station may not report precipitation (e.g., rain,snow,etc.),
thunder or fog.

VAZ042-051-052>054-056-212100-
NORTHERN VIRGINIA

CITY           SKY/WX    TMP DP  RH WIND       PRES   REMARKS
WASH NATIONAL  SUNNY     45  24  43 NE3       30.30F
DULLES         SUNNY     40  24  53 N5        30.28F
FORT BELVOIR   SUNNY     43  24  47 VRB3      30.29F
QUANTICO       SUNNY     42  28  57 E6        30.30F
FREDERICKSBRG* SUNNY     44  28  51 CALM      30.27F
STAFFORD*      SUNNY     44  25  47 CALM      30.31F
WARRENTON      SUNNY     44  32  62 NE3       30.26F
CULPEPER*      SUNNY     45  27  49 CALM      30.27F
MANASSAS*      SUNNY     43  27  52 CALM      30.25
LEESBURG*      SUNNY     41  30  65 N3        30.28F
WINCHESTER     SUNNY     41  21  45 S3        30.25F
FRONT ROYAL*   CLEAR     39  27  60 NE3       30.24F
LURAY*         CLEAR     45  30  57 NE3       30.22F
$$

VAZ048-049-060>072-079>083-212100-
CENTRAL AND SOUTH CENTRAL VIRGINIA

CITY           SKY/WX    TMP DP  RH WIND       PRES   REMARKS
RICHMOND       SUNNY     46  26  45 NE5       30.27F
CHESTERFIELD*  CLEAR     45  21  39 CALM      30.27F
PETERSBURG*    SUNNY     46  26  47 CALM      30.26F
HANOVER        SUNNY     44  26  49 CALM      30.28F
TAPPAHANNOCK*  SUNNY     44  22  40 CALM      30.28F
QUINTON*       CLEAR     44  29  55 CALM      30.27F
CHARLOTTSVILLE SUNNY     44  27  51 CALM      30.24F
GORDONSVILLE*  CLEAR     42  27  54 CALM      30.24F
ORANGE*        SUNNY     43  28  56 NE5       30.27F
LOUISA*        SUNNY     45  28  53 CALM      30.24F
BUMPASS*       CLEAR     42  28  56 NE3       30.26F
FARMVILLE*     SUNNY     52  29  41 NE5       30.24S
CREWE*         PTCLDY    45  28  50 CALM      30.24F
FORT PICKETT*  CLEAR     46  29  51 CALM      30.24F
CHASE CITY*    PTCLDY    48  33  55 CALM      30.24S
CLARKSVILLE*   CLEAR     46  32  57 SE5       30.23S
SOUTH HILL*    SUNNY     45  30  56 CALM      30.30F
LAWRENCEVILLE* CLEAR     45  30  55 E3        30.24F
EMPORIA*       SUNNY     45  30  57 N6        30.27F
$$

VAZ088>098-212100-
SOUTHEAST VIRGINIA

CITY           SKY/WX    TMP DP  RH WIND       PRES   REMARKS
NORFOLK        SUNNY     42  29  59 NE8       30.28F
VIRGINIA BEACH MOSUNNY   44  27  51 NE8       30.27F
NORFOLK NAVAL  MOSUNNY   45  31  58 NE9       30.29F
WEST POINT*    SUNNY     47  26  44 SW3       30.30S
SALUDA*        FAIR      41  28  61 E6        30.29S
NEWPORT NEWS   SUNNY     45  32  60 E9        30.28F
LANGLEY AFB    SUNNY     42  31  66 NE9       30.29
FORT EUSTIS    SUNNY     45  27  50 E6        30.26F
WILLIAMSBURG*  SUNNY     48  30  49 CALM      30.29S
HR EXEC AP*    CLEAR     45  30  57 E7        30.29F
FRANKLIN*      SUNNY     46  30  53 NE7       30.26F
WAKEFIELD      SUNNY     46  28  49 VRB5      30.27F
$$

VAZ020-022-025-037-045-212100-
WEST CENTRAL AND SOUTHWEST VIRGINIA

CITY           SKY/WX    TMP DP  RH WIND       PRES   REMARKS
STAUNTON*      SUNNY     43  27  52 CALM      30.23S
WAYNESBORO*    CLEAR     41  27  57 E6        30.20F
HOT SPRINGS VA SUNNY     37  26  63 S6        30.10S
LYNCHBURG      MOSUNNY   45  30  55 CALM      30.24R
DANVILLE       MOSUNNY   48  33  56 NE5       30.24S
SOUTH BOSTON*  CLEAR     47  30  52 N3        30.24S
MARTINSVILLE   CLOUDY    47  35  63 E3        30.24F
ROANOKE        PTSUNNY   46  30  53 SE7       30.23R
BLACKSBURG     CLOUDY    43  30  60 CALM      30.21R
DUBLIN*        CLOUDY    45  34  66 E3        30.18S
MARION*        CLOUDY    45  35  66 E8        30.16S
HILLSVILLE*    CLOUDY    40  34  78 SE5       30.15F
RICHLANDS*     CLEAR     44  30  59 CALM      30.13R
WISE*          SUNNY     48  28  46 S3        30.12F
ABINGDON*      SUNNY     51  35  55 W3        30.13F
$$

MDZ021>025-VAZ099-100-212100-
SOUTHERN MARYLAND AND THE DELMARVA PENINSULA

CITY           SKY/WX    TMP DP  RH WIND       PRES   REMARKS
PATUXENT RIVER SUNNY     41  28  60 E7        30.29F
BAY BRIDGE APT   N/A     39  23  52 CALM      30.30F
LEONARDTOWN    SUNNY     41  25  52 E6        30.29F
DOVER          SUNNY     41  24  51 NW8       30.26F
GEORGETOWN     SUNNY     41  24  51 NW5       30.29F
EASTON         SUNNY     41  27  56 CALM      30.33F
CAMBRIDGE      SUNNY     41  27  56 N3        30.29F
SALISBURY      SUNNY     44  26  49 NW6       30.29F
OCEAN CITY     SUNNY     43  25  49 VRB3      30.29S
WALLOPS ISLAND SUNNY     43  27  53 NW3       30.29F
ACCOMACK*      SUNNY     41  27  56 N3        30.28F
$$

NCZ012>017-030>032-212100-
NORTH CENTRAL AND EASTERN NORTH CAROLINA

CITY           SKY/WX    TMP DP  RH WIND       PRES   REMARKS
ROANOKE RAPIDS CLEAR     46  30  53 NE5       30.25F
RALEIGH        MOSUNNY   50  34  54 NE6       30.24S
ELIZABETH CITY SUNNY     49  34  56 NE9       30.27F
AHOSKIE*       SUNNY     46  30  53 E6        30.26F
EDENTON*       SUNNY     49  34  56 NE7       30.25F
CURRITUCK*     SUNNY     45  32  60 NE9       30.28F
KILL DEVIL HLS SUNNY     46  37  69 NE7       30.25S
MANTEO         MOSUNNY   46  37  69 NE12      30.26S
CAPE HATTERAS  CLOUDY    47  40  76 NE9G16    30.23F
TARBORO*       CLEAR     50  32  50 N7        30.25F
GOLDSBORO      CLOUDY    47  41  78 NE7       30.22
WASHINGTON     CLOUDY    47  33  56 E8        30.24F
GREENVILLE     MOSUNNY   48  32  53 E3        30.24F
NEW BERN       PTSUNNY   49  36  61 NE9       30.24F
WILMINGTON     CLOUDY    50  37  61 NE13      30.19F
$$

VAZ048-212100-
ELSEWHERE

CITY           SKY/WX    TMP DP  RH WIND       PRES   REMARKS
HARRISBURG PA  PTSUNNY   34  21  59 NE6       30.30S
BALTIMORE      MOSUNNY   41  23  48 W7        30.28F
ANNAPOLIS      SUNNY     40  23  50 NW6       30.29F
ANDREWS AFB    MOSUNNY   41  24  50 N5        30.27F
PHILADELPHIA   MOSUNNY   39  22  50 NW9       30.30F
HENDERSON NC   MOSUNNY   46  31  56 CALM      30.23F
GREENSBORO     CLOUDY    47  35  63 CALM      30.21S
ROCKY MOUNT    SUNNY     50  32  50 VRB7      30.24F
$$

VAZ100-212100-
MARINE

STATION/POSITION TIME  TEMP    WIND        PRES    WAVE   SWELL
                       AIR SEA DIR/SP/G            HT/PER HT/PER
                 (UTC) (F)     (DEG/KT/KT) (MB)    (FT/S) (FT/S)
CAPE MAY NJ      2000   38 43  320/  9/ 12 1025.2F
LEWES DE         2000   38 42   10/  9/ 11 1025.6F
15NM E FENWICK I 2000   38 45              1025.6S   2/ 3
OCEAN-CITY-INLET 2000   41 44   20/  4/  5 1025.3S
WACHAPREAGUE VA  2000   42 40  340/  2/  6 1025.4F
THOMAS POINT MD  2000   37 41   70/  4/  5 1026.8F
GOOSES REEF MD   2000   38     VRB  4/  6  1024.9F   0
COVE POINT MD    2000   37      40/  4/  6 1025.7F
SOLOMONS ISLAND  2000      43                N/A
BISHOPS HEAD MD  2000   38 39  280/  5/  7 1025.3F
POTOMAC MD       2000   39 42   80/  4/  6 1024.8F   1
CAMBRIDGE MD     2000   38 40  310/  5/  7 1025.8S
LEWISETTA VA     2000   38 41  100/  6/  7 1025.3S
RAPPAHANNOCK LGT 2000           20/ 10/ 11 1025.9F
STINGRAY PT      2000   40 44   60/  6/  8 1026.0F   1
YORK RVR RNG VA  2000   40      70/  9/ 10 1024.8F
YORKTOWN VA      2000   41 45  110/  6/  7 1025.1F
JAMESTOWN VA     2000   42 45  180/  8/ 10   N/A     0
DOMINION TERM VA 2000   41      90/  6/  8 1025.3F
KIPTOPEKE VA     2000      48   30/  5/ 10   N/A
CHES BAY BRIDGE  2000   40 45   20/  3/  6 1025.0F
CAPE HENRY VA    2000   41      30/  4/  6 1024.2F
CHESAPEAKE LGHT  1900   40      20/ 12/ 14 1026.2F
WILLOUBY STN VA  2000   40      50/  8/  9 1025.8S
S CRANEY ISL VA  2000           40/  8/ 10 1025.2F
CAPE HENRY BUOY  1900      49                N/A     2/11
1ST LANDING BUOY 2000   42 46   20/  4/  6 1025.0F   1
CAPE CHARLES BUO 2000      47                N/A     2/ 9   2/ 9
64NM E OF VA BCH 2000   45 54   10/ 14/ 16 1024.7F   2/ 4   2/ 9
DUCK PIER NC     2000   44 46   30/ 12/ 16 1024.0S
44100 DUCK FRF   2000      51                N/A     3/ 4
44056 DUCK FRF   1900      47                N/A     2/ 4
OREGON INLET NC  2000   47 47   20/ 11/ 14 1024.5R
HATTERAS NC      2000   46 50   30/ 13/ 18 1023.9F
DIAMOND SHLS NC  2000   53                 1023.5S   3/ 4
CAPE LOOKOUT NC  1900   45      20/ 16/ 20 1023.2F
$$



USA.gov is the U.S. government's official web portal to all federal, state and local government web resources and services.